Time,TemperatureF,DewpointF,PressureIn,WindDirection,WindDirectionDegrees,WindSpeedMPH,WindSpeedGustMPH,Humidity,HourlyPrecipIn,Conditions,Clouds,dailyrainin,SoftwareType,DateUTC
2013-03-09 00:00:00,38.8,32.5,30.11,ENE,78,11.0,16.0,78,0.00,,,0.44,meteohub,2013-03-09 05:00:00,
2013-03-09 00:01:00,38.8,32.5,30.11,East,100,6.0,16.0,78,0.00,,,0.44,meteohub,2013-03-09 05:01:00,
2013-03-09 00:02:00,38.8,32.5,30.11,East,87,9.0,16.0,78,0.00,,,0.44,meteohub,2013-03-09 05:02:00,
2013-03-09 00:07:00,38.7,32.4,30.11,ENE,57,9.0,16.0,78,0.00,,,0.00,meteohub,2013-03-09 05:07:00,
2013-03-09 00:12:00,38.7,32.4,30.11,East,98,16.0,16.0,78,0.00,,,0.00,meteohub,2013-03-09 05:12:00,
2013-03-09 00:17:00,38.7,32.0,30.11,ENE,73,9.0,19.0,77,0.00,,,0.00,meteohub,2013-03-09 05:17:00,
2013-03-09 00:22:00,38.5,32.2,30.11,NE,44,7.0,20.0,78,0.00,,,0.00,meteohub,2013-03-09 05:22:00,
2013-03-09 00:27:00,38.3,32.0,30.12,ENE,67,9.0,20.0,78,0.00,,,0.00,meteohub,2013-03-09 05:27:00,
2013-03-09 00:32:00,38.3,32.4,30.12,ENE,66,8.0,20.0,79,0.00,,,0.00,meteohub,2013-03-09 05:32:00,
2013-03-09 00:38:00,38.1,32.2,30.12,East,101,6.0,18.0,79,0.00,,,0.00,meteohub,2013-03-09 05:38:00,
2013-03-09 00:43:00,38.1,32.2,30.12,East,84,9.0,18.0,79,0.00,,,0.00,meteohub,2013-03-09 05:43:00,
2013-03-09 00:48:00,38.1,32.2,30.12,East,81,9.0,19.0,79,0.00,,,0.00,meteohub,2013-03-09 05:48:00,
2013-03-09 00:53:00,37.9,32.0,30.12,ENE,70,11.0,19.0,79,0.00,,,0.00,meteohub,2013-03-09 05:53:00,
2013-03-09 00:58:00,37.8,32.2,30.12,ENE,74,9.0,18.0,80,0.00,,,0.00,meteohub,2013-03-09 05:58:00,
2013-03-09 01:03:00,37.8,32.2,30.12,East,89,11.0,17.0,80,0.00,,,0.00,meteohub,2013-03-09 06:03:00,
2013-03-09 01:08:00,37.8,32.2,30.12,ENE,72,8.0,20.0,80,0.00,,,0.00,meteohub,2013-03-09 06:08:00,
2013-03-09 01:13:00,37.8,32.2,30.12,NE,54,6.0,20.0,80,0.00,,,0.00,meteohub,2013-03-09 06:13:00,
2013-03-09 01:18:00,37.8,31.8,30.12,ESE,119,8.0,23.0,79,0.00,,,0.00,meteohub,2013-03-09 06:18:00,
2013-03-09 01:23:00,37.8,31.8,30.12,ESE,108,10.0,23.0,79,0.00,,,0.00,meteohub,2013-03-09 06:23:00,
2013-03-09 01:28:00,37.6,32.0,30.12,East,82,7.0,23.0,80,0.00,,,0.00,meteohub,2013-03-09 06:28:00,
2013-03-09 01:33:00,37.6,32.5,30.13,NE,47,8.0,23.0,82,0.00,,,0.00,meteohub,2013-03-09 06:33:00,
2013-03-09 01:38:00,37.4,32.4,30.12,ESE,103,10.0,16.0,82,0.00,,,0.00,meteohub,2013-03-09 06:38:00,
2013-03-09 01:43:00,37.2,32.2,30.12,East,92,6.0,16.0,82,0.00,,,0.00,meteohub,2013-03-09 06:43:00,
2013-03-09 01:48:00,37.4,32.4,30.12,ENE,70,14.0,15.0,82,0.00,,,0.00,meteohub,2013-03-09 06:48:00,
2013-03-09 01:53:00,37.6,32.4,30.12,East,86,11.0,16.0,81,0.00,,,0.00,meteohub,2013-03-09 06:53:00,
2013-03-09 01:59:00,37.4,31.8,30.12,ESE,117,9.0,18.0,80,0.00,,,0.00,meteohub,2013-03-09 06:59:00,
2013-03-09 02:04:00,37.4,31.8,30.12,East,94,9.0,22.0,80,0.00,,,0.00,meteohub,2013-03-09 07:04:00,
2013-03-09 02:09:00,37.2,32.0,30.12,ENE,72,4.0,22.0,81,0.00,,,0.00,meteohub,2013-03-09 07:09:00,
2013-03-09 02:14:00,37.0,32.0,30.12,East,83,7.0,22.0,82,0.00,,,0.00,meteohub,2013-03-09 07:14:00,
2013-03-09 02:19:00,37.0,32.4,30.12,East,89,15.0,15.0,83,0.00,,,0.00,meteohub,2013-03-09 07:19:00,
2013-03-09 02:24:00,37.0,32.0,30.12,East,96,14.0,16.0,82,0.00,,,0.00,meteohub,2013-03-09 07:24:00,
2013-03-09 02:29:00,37.2,32.0,30.12,ENE,68,9.0,16.0,81,0.00,,,0.00,meteohub,2013-03-09 07:29:00,
2013-03-09 02:34:00,37.0,31.8,30.12,East,95,13.0,21.0,81,0.00,,,0.00,meteohub,2013-03-09 07:34:00,
2013-03-09 02:39:00,37.0,32.0,30.12,ENE,77,5.0,23.0,82,0.00,,,0.00,meteohub,2013-03-09 07:39:00,
2013-03-09 02:44:00,37.0,32.4,30.12,East,101,14.0,23.0,83,0.00,,,0.00,meteohub,2013-03-09 07:44:00,
2013-03-09 02:49:00,36.9,32.2,30.12,East,88,9.0,23.0,83,0.00,,,0.00,meteohub,2013-03-09 07:49:00,
2013-03-09 02:54:00,36.9,32.2,30.12,ENE,71,8.0,19.0,83,0.00,,,0.00,meteohub,2013-03-09 07:54:00,
2013-03-09 02:59:00,36.9,32.2,30.12,NE,54,8.0,19.0,83,0.00,,,0.00,meteohub,2013-03-09 07:59:00,
2013-03-09 03:04:00,36.9,32.5,30.12,ESE,119,5.0,15.0,84,0.00,,,0.00,meteohub,2013-03-09 08:04:00,
2013-03-09 03:10:00,36.9,32.5,30.12,East,85,10.0,16.0,84,0.00,,,0.00,meteohub,2013-03-09 08:10:00,
2013-03-09 03:15:00,36.9,32.5,30.12,ENE,76,7.0,19.0,84,0.00,,,0.00,meteohub,2013-03-09 08:15:00,
2013-03-09 03:20:00,36.7,32.4,30.12,ENE,71,12.0,19.0,84,0.00,,,0.00,meteohub,2013-03-09 08:20:00,
2013-03-09 03:25:00,36.7,32.4,30.12,ESE,109,9.0,19.0,84,0.00,,,0.00,meteohub,2013-03-09 08:25:00,
2013-03-09 03:30:00,36.7,32.4,30.12,East,90,13.0,19.0,84,0.00,,,0.00,meteohub,2013-03-09 08:30:00,
2013-03-09 03:35:00,36.7,32.0,30.12,East,92,5.0,23.0,83,0.00,,,0.00,meteohub,2013-03-09 08:35:00,
2013-03-09 03:40:00,36.7,32.4,30.13,East,96,10.0,23.0,84,0.00,,,0.00,meteohub,2013-03-09 08:40:00,
2013-03-09 03:45:00,36.7,32.4,30.12,ENE,77,9.0,20.0,84,0.00,,,0.00,meteohub,2013-03-09 08:45:00,
2013-03-09 03:50:00,36.5,32.2,30.13,East,88,10.0,18.0,84,0.00,,,0.00,meteohub,2013-03-09 08:50:00,
2013-03-09 03:55:00,36.5,32.4,30.13,ESE,113,11.0,18.0,85,0.00,,,0.00,meteohub,2013-03-09 08:55:00,
2013-03-09 04:00:00,36.7,32.5,30.14,ENE,73,5.0,21.0,85,0.00,,,0.00,meteohub,2013-03-09 09:00:00,
2013-03-09 04:05:00,36.5,32.4,30.14,ESE,120,13.0,21.0,85,0.00,,,0.00,meteohub,2013-03-09 09:05:00,
2013-03-09 04:10:00,36.5,32.4,30.14,East,92,10.0,19.0,85,0.00,,,0.00,meteohub,2013-03-09 09:10:00,
2013-03-09 04:15:00,36.5,32.4,30.14,East,98,11.0,17.0,85,0.00,,,0.00,meteohub,2013-03-09 09:15:00,
2013-03-09 04:20:00,36.3,32.2,30.14,East,84,10.0,17.0,85,0.00,,,0.00,meteohub,2013-03-09 09:20:00,
2013-03-09 04:26:00,36.5,32.4,30.14,ENE,75,7.0,22.0,85,0.00,,,0.00,meteohub,2013-03-09 09:26:00,
2013-03-09 04:31:00,36.5,32.4,30.15,East,85,8.0,24.0,85,0.00,,,0.00,meteohub,2013-03-09 09:31:00,
2013-03-09 04:36:00,36.3,32.2,30.15,SW,227,4.0,24.0,85,0.00,,,0.00,meteohub,2013-03-09 09:36:00,
2013-03-09 04:41:00,36.3,32.2,30.15,East,96,7.0,24.0,85,0.00,,,0.00,meteohub,2013-03-09 09:41:00,
2013-03-09 04:46:00,36.3,32.2,30.15,ENE,75,12.0,21.0,85,0.00,,,0.00,meteohub,2013-03-09 09:46:00,
2013-03-09 04:51:00,36.3,32.2,30.15,East,97,11.0,19.0,85,0.00,,,0.00,meteohub,2013-03-09 09:51:00,
2013-03-09 04:56:00,36.3,32.2,30.15,ENE,59,12.0,19.0,85,0.00,,,0.00,meteohub,2013-03-09 09:56:00,
2013-03-09 05:01:00,36.3,32.2,30.16,East,79,11.0,22.0,85,0.00,,,0.00,meteohub,2013-03-09 10:01:00,
2013-03-09 05:06:00,36.3,32.2,30.16,East,98,8.0,22.0,85,0.00,,,0.00,meteohub,2013-03-09 10:06:00,
2013-03-09 05:11:00,36.1,32.4,30.16,East,98,10.0,22.0,86,0.00,,,0.00,meteohub,2013-03-09 10:11:00,
2013-03-09 05:16:00,36.1,32.0,30.16,SE,142,9.0,22.0,85,0.00,,,0.00,meteohub,2013-03-09 10:16:00,
2013-03-09 05:21:00,36.1,32.0,30.16,ESE,108,4.0,22.0,85,0.00,,,0.00,meteohub,2013-03-09 10:21:00,
2013-03-09 05:26:00,36.0,31.8,30.16,SE,132,7.0,22.0,85,0.00,,,0.00,meteohub,2013-03-09 10:26:00,
2013-03-09 05:31:00,36.0,31.8,30.17,ESE,107,10.0,17.0,85,0.00,,,0.00,meteohub,2013-03-09 10:31:00,
2013-03-09 05:37:00,36.0,31.8,30.16,East,100,10.0,17.0,85,0.00,,,0.00,meteohub,2013-03-09 10:37:00,
2013-03-09 05:42:00,36.1,31.8,30.17,ENE,67,7.0,18.0,84,0.00,,,0.00,meteohub,2013-03-09 10:42:00,
2013-03-09 05:47:00,36.1,31.8,30.17,ESE,107,9.0,18.0,84,0.00,,,0.00,meteohub,2013-03-09 10:47:00,
2013-03-09 05:52:00,36.1,31.8,30.17,ENE,71,9.0,23.0,84,0.00,,,0.00,meteohub,2013-03-09 10:52:00,
2013-03-09 05:57:00,36.1,31.8,30.17,East,95,7.0,23.0,84,0.00,,,0.00,meteohub,2013-03-09 10:57:00,
2013-03-09 06:02:00,36.0,31.8,30.17,ESE,115,8.0,23.0,85,0.00,,,0.00,meteohub,2013-03-09 11:02:00,
2013-03-09 06:07:00,36.0,31.6,30.18,East,94,16.0,19.0,84,0.00,,,0.00,meteohub,2013-03-09 11:07:00,
2013-03-09 06:12:00,36.0,31.6,30.18,East,99,13.0,22.0,84,0.00,,,0.00,meteohub,2013-03-09 11:12:00,
2013-03-09 06:17:00,35.8,31.6,30.18,East,99,9.0,22.0,85,0.00,,,0.00,meteohub,2013-03-09 11:17:00,
2013-03-09 06:22:00,36.0,31.8,30.19,East,82,6.0,22.0,85,0.00,,,0.00,meteohub,2013-03-09 11:22:00,
2013-03-09 06:27:00,35.8,31.6,30.19,East,91,9.0,17.0,85,0.00,,,0.00,meteohub,2013-03-09 11:27:00,
2013-03-09 06:32:00,35.8,31.6,30.19,ENE,78,9.0,23.0,85,0.00,,,0.00,meteohub,2013-03-09 11:32:00,
2013-03-09 06:37:00,35.8,31.6,30.19,ENE,61,8.0,23.0,85,0.00,,,0.00,meteohub,2013-03-09 11:37:00,
2013-03-09 06:42:00,35.8,31.6,30.20,ESE,118,9.0,16.0,85,0.00,,,0.00,meteohub,2013-03-09 11:42:00,
2013-03-09 06:47:00,35.8,31.6,30.20,East,85,6.0,17.0,85,0.00,,,0.00,meteohub,2013-03-09 11:47:00,
2013-03-09 06:52:00,36.0,31.6,30.20,ESE,111,10.0,24.0,84,0.00,,,0.00,meteohub,2013-03-09 11:52:00,
2013-03-09 06:57:00,36.0,31.6,30.20,East,79,9.0,24.0,84,0.00,,,0.00,meteohub,2013-03-09 11:57:00,
2013-03-09 07:02:00,36.0,31.6,30.21,East,95,9.0,24.0,84,0.00,,,0.00,meteohub,2013-03-09 12:02:00,
2013-03-09 07:07:00,36.0,31.8,30.21,ESE,112,13.0,17.0,85,0.00,,,0.00,meteohub,2013-03-09 12:07:00,
2013-03-09 07:12:00,36.0,31.8,30.21,East,98,7.0,17.0,85,0.00,,,0.00,meteohub,2013-03-09 12:12:00,
2013-03-09 07:17:00,36.0,31.8,30.21,ENE,77,8.0,16.0,85,0.00,,,0.00,meteohub,2013-03-09 12:17:00,
2013-03-09 07:22:00,36.0,31.8,30.22,ENE,76,9.0,18.0,85,0.00,,,0.00,meteohub,2013-03-09 12:22:00,
2013-03-09 07:27:00,36.0,31.8,30.22,ENE,57,7.0,18.0,85,0.00,,,0.00,meteohub,2013-03-09 12:27:00,
2013-03-09 07:32:00,36.0,31.8,30.21,ESE,113,7.0,17.0,85,0.00,,,0.00,meteohub,2013-03-09 12:32:00,
2013-03-09 07:37:00,36.0,31.6,30.22,ENE,70,8.0,17.0,84,0.00,,,0.00,meteohub,2013-03-09 12:37:00,
2013-03-09 07:42:00,36.0,31.6,30.22,ESE,102,8.0,21.0,84,0.00,,,0.00,meteohub,2013-03-09 12:42:00,
2013-03-09 07:47:00,36.0,31.3,30.22,ESE,117,9.0,21.0,83,0.00,,,0.00,meteohub,2013-03-09 12:47:00,
2013-03-09 07:52:00,36.1,31.5,30.23,East,101,5.0,21.0,83,0.00,,,0.00,meteohub,2013-03-09 12:52:00,
2013-03-09 07:57:00,36.1,31.8,30.23,ESE,103,10.0,16.0,84,0.00,,,0.00,meteohub,2013-03-09 12:57:00,
2013-03-09 08:02:00,36.1,31.5,30.23,ESE,120,7.0,16.0,83,0.00,,,0.00,meteohub,2013-03-09 13:02:00,
2013-03-09 08:07:00,36.1,31.5,30.23,East,79,14.0,22.0,83,0.00,,,0.00,meteohub,2013-03-09 13:07:00,
2013-03-09 08:12:00,36.1,31.5,30.23,East,84,13.0,22.0,83,0.00,,,0.00,meteohub,2013-03-09 13:12:00,
2013-03-09 08:17:00,36.1,31.5,30.24,East,91,8.0,19.0,83,0.00,,,0.00,meteohub,2013-03-09 13:17:00,
2013-03-09 08:22:00,36.1,31.8,30.24,ENE,57,4.0,21.0,84,0.00,,,0.00,meteohub,2013-03-09 13:22:00,
2013-03-09 08:27:00,36.3,32.0,30.24,ESE,103,8.0,21.0,84,0.00,,,0.00,meteohub,2013-03-09 13:27:00,
2013-03-09 08:32:00,36.1,31.8,30.25,NE,55,7.0,21.0,84,0.00,,,0.00,meteohub,2013-03-09 13:32:00,
2013-03-09 08:37:00,36.3,32.0,30.25,East,85,6.0,21.0,84,0.00,,,0.00,meteohub,2013-03-09 13:37:00,
2013-03-09 08:42:00,36.3,32.0,30.25,SE,125,5.0,21.0,84,0.00,,,0.00,meteohub,2013-03-09 13:42:00,
2013-03-09 08:47:00,36.3,32.0,30.25,ESE,117,7.0,15.0,84,0.00,,,0.00,meteohub,2013-03-09 13:47:00,
2013-03-09 08:52:00,36.1,31.5,30.25,ESE,121,13.0,15.0,83,0.00,,,0.00,meteohub,2013-03-09 13:52:00,
2013-03-09 08:57:00,36.3,32.0,30.25,ESE,113,8.0,16.0,84,0.00,,,0.00,meteohub,2013-03-09 13:57:00,
2013-03-09 09:02:00,36.5,32.2,30.25,East,85,6.0,16.0,84,0.00,,,0.00,meteohub,2013-03-09 14:02:00,
2013-03-09 09:07:00,36.5,32.2,30.25,ESE,114,13.0,16.0,84,0.00,,,0.00,meteohub,2013-03-09 14:07:00,
2013-03-09 09:12:00,36.5,31.8,30.24,East,100,11.0,17.0,83,0.00,,,0.00,meteohub,2013-03-09 14:12:00,
2013-03-09 09:17:00,36.3,31.6,30.24,East,84,8.0,18.0,83,0.00,,,0.00,meteohub,2013-03-09 14:17:00,
2013-03-09 09:22:00,36.1,31.5,30.24,East,79,6.0,18.0,83,0.00,,,0.00,meteohub,2013-03-09 14:22:00,
2013-03-09 09:27:00,36.1,31.8,30.24,East,92,9.0,18.0,84,0.00,,,0.00,meteohub,2013-03-09 14:27:00,
2013-03-09 09:32:00,36.3,32.0,30.25,NE,55,6.0,19.0,84,0.00,,,0.00,meteohub,2013-03-09 14:32:00,
2013-03-09 09:37:00,36.5,32.2,30.25,East,89,7.0,19.0,84,0.00,,,0.00,meteohub,2013-03-09 14:37:00,
2013-03-09 09:42:00,36.5,32.2,30.24,ENE,60,4.0,19.0,84,0.00,,,0.00,meteohub,2013-03-09 14:42:00,
2013-03-09 09:47:00,36.7,32.5,30.24,ENE,74,5.0,18.0,85,0.00,,,0.00,meteohub,2013-03-09 14:47:00,
2013-03-09 09:52:00,36.7,32.5,30.25,East,94,9.0,18.0,85,0.00,,,0.00,meteohub,2013-03-09 14:52:00,
2013-03-09 09:57:00,36.7,32.5,30.25,East,86,5.0,18.0,85,0.00,,,0.00,meteohub,2013-03-09 14:57:00,
2013-03-09 10:02:00,36.7,32.4,30.25,ENE,72,12.0,17.0,84,0.00,,,0.00,meteohub,2013-03-09 15:02:00,
2013-03-09 10:07:00,36.7,32.4,30.25,ESE,103,5.0,18.0,84,0.00,,,0.00,meteohub,2013-03-09 15:07:00,
2013-03-09 10:12:00,36.7,32.4,30.25,East,93,11.0,18.0,84,0.00,,,0.00,meteohub,2013-03-09 15:12:00,
2013-03-09 10:17:00,36.7,32.4,30.25,East,86,8.0,18.0,84,0.00,,,0.00,meteohub,2013-03-09 15:17:00,
2013-03-09 10:22:00,36.7,32.0,30.25,East,80,16.0,18.0,83,0.00,,,0.00,meteohub,2013-03-09 15:22:00,
2013-03-09 10:27:00,36.7,32.0,30.25,ENE,69,8.0,22.0,83,0.00,,,0.00,meteohub,2013-03-09 15:27:00,
2013-03-09 10:32:00,36.9,32.5,30.25,ENE,75,8.0,22.0,84,0.00,,,0.00,meteohub,2013-03-09 15:32:00,
2013-03-09 10:37:00,36.9,32.5,30.25,ESE,102,12.0,22.0,84,0.00,,,0.00,meteohub,2013-03-09 15:37:00,
2013-03-09 10:42:00,36.9,32.5,30.25,East,80,10.0,15.0,84,0.00,,,0.00,meteohub,2013-03-09 15:42:00,
2013-03-09 10:47:00,36.9,32.5,30.25,ENE,74,8.0,17.0,84,0.00,,,0.00,meteohub,2013-03-09 15:47:00,
2013-03-09 10:52:00,37.0,32.7,30.25,East,84,13.0,17.0,84,0.00,,,0.00,meteohub,2013-03-09 15:52:00,
2013-03-09 10:57:00,36.9,32.5,30.25,ENE,71,7.0,17.0,84,0.00,,,0.00,meteohub,2013-03-09 15:57:00,
2013-03-09 11:02:00,37.0,32.7,30.25,East,92,3.0,18.0,84,0.00,,,0.00,meteohub,2013-03-09 16:02:00,
2013-03-09 11:07:00,37.2,32.9,30.26,ESE,113,11.0,18.0,84,0.00,,,0.00,meteohub,2013-03-09 16:07:00,
2013-03-09 11:12:00,37.0,32.4,30.25,ENE,76,12.0,18.0,83,0.00,,,0.00,meteohub,2013-03-09 16:12:00,
2013-03-09 11:17:00,37.0,32.4,30.26,ENE,62,12.0,18.0,83,0.00,,,0.00,meteohub,2013-03-09 16:17:00,
2013-03-09 11:22:00,37.0,32.4,30.26,ESE,113,10.0,18.0,83,0.00,,,0.00,meteohub,2013-03-09 16:22:00,
2013-03-09 11:27:00,37.0,32.4,30.27,SE,125,11.0,23.0,83,0.00,,,0.00,meteohub,2013-03-09 16:27:00,
2013-03-09 11:32:00,37.0,32.4,30.27,East,83,8.0,23.0,83,0.00,,,0.00,meteohub,2013-03-09 16:32:00,
2013-03-09 11:37:00,37.2,32.5,30.27,East,96,7.0,23.0,83,0.00,,,0.00,meteohub,2013-03-09 16:37:00,
2013-03-09 11:42:00,37.2,32.5,30.27,ENE,63,10.0,17.0,83,0.00,,,0.00,meteohub,2013-03-09 16:42:00,
2013-03-09 11:47:00,37.2,32.5,30.27,ESE,107,4.0,17.0,83,0.00,,,0.00,meteohub,2013-03-09 16:47:00,
2013-03-09 11:52:00,37.2,32.5,30.27,East,96,9.0,16.0,83,0.00,,,0.00,meteohub,2013-03-09 16:52:00,
2013-03-09 11:57:00,37.4,32.7,30.27,ESE,114,5.0,17.0,83,0.00,,,0.00,meteohub,2013-03-09 16:57:00,
2013-03-09 12:02:00,37.4,32.7,30.27,ESE,117,13.0,17.0,83,0.00,,,0.00,meteohub,2013-03-09 17:02:00,
2013-03-09 12:07:00,37.2,32.9,30.27,East,96,7.0,17.0,84,0.00,,,0.00,meteohub,2013-03-09 17:07:00,
2013-03-09 12:12:00,37.4,33.1,30.27,East,98,5.0,17.0,84,0.00,,,0.00,meteohub,2013-03-09 17:12:00,
2013-03-09 12:17:00,37.6,33.3,30.27,SE,136,8.0,17.0,84,0.00,,,0.00,meteohub,2013-03-09 17:17:00,
2013-03-09 12:22:00,37.2,32.9,30.27,ENE,76,12.0,15.0,84,0.00,,,0.00,meteohub,2013-03-09 17:22:00,
2013-03-09 12:27:00,37.0,32.7,30.27,ENE,66,7.0,16.0,84,0.00,,,0.00,meteohub,2013-03-09 17:27:00,
2013-03-09 12:32:00,37.2,33.1,30.27,East,84,11.0,16.0,85,0.00,,,0.00,meteohub,2013-03-09 17:32:00,
2013-03-09 12:37:00,37.2,33.1,30.27,East,80,9.0,22.0,85,0.00,,,0.00,meteohub,2013-03-09 17:37:00,
2013-03-09 12:42:00,37.2,33.1,30.27,ENE,70,9.0,22.0,85,0.00,,,0.00,meteohub,2013-03-09 17:42:00,
2013-03-09 12:47:00,36.9,32.2,30.27,East,93,6.0,22.0,83,0.00,,,0.00,meteohub,2013-03-09 17:47:00,
2013-03-09 12:52:00,37.0,32.7,30.27,East,79,8.0,25.0,84,0.00,,,0.00,meteohub,2013-03-09 17:52:00,
2013-03-09 12:57:00,37.2,32.9,30.27,East,84,9.0,25.0,84,0.00,,,0.00,meteohub,2013-03-09 17:57:00,
2013-03-09 13:02:00,37.0,32.4,30.27,East,96,11.0,25.0,83,0.00,,,0.00,meteohub,2013-03-09 18:02:00,
2013-03-09 13:07:00,37.0,32.4,30.27,ENE,58,11.0,21.0,83,0.00,,,0.00,meteohub,2013-03-09 18:07:00,
2013-03-09 13:12:00,37.2,32.5,30.27,ESE,109,8.0,21.0,83,0.00,,,0.00,meteohub,2013-03-09 18:12:00,
2013-03-09 13:17:00,37.2,32.9,30.27,ESE,107,10.0,21.0,84,0.00,,,0.00,meteohub,2013-03-09 18:17:00,
2013-03-09 13:22:00,37.0,32.4,30.28,East,84,17.0,19.0,83,0.00,,,0.00,meteohub,2013-03-09 18:22:00,
2013-03-09 13:27:00,37.2,32.5,30.28,East,94,11.0,19.0,83,0.00,,,0.00,meteohub,2013-03-09 18:27:00,
2013-03-09 13:32:00,37.2,32.5,30.28,East,86,11.0,19.0,83,0.00,,,0.00,meteohub,2013-03-09 18:32:00,
2013-03-09 13:37:00,37.0,32.7,30.28,East,88,10.0,18.0,84,0.00,,,0.00,meteohub,2013-03-09 18:37:00,
2013-03-09 13:42:00,37.0,32.7,30.28,ENE,77,9.0,19.0,84,0.00,,,0.00,meteohub,2013-03-09 18:42:00,
2013-03-09 13:47:00,37.0,32.4,30.28,East,84,8.0,19.0,83,0.00,,,0.00,meteohub,2013-03-09 18:47:00,
2013-03-09 13:52:00,36.9,32.2,30.28,ESE,113,8.0,19.0,83,0.00,,,0.00,meteohub,2013-03-09 18:52:00,
2013-03-09 13:57:00,36.9,32.2,30.28,ENE,61,13.0,17.0,83,0.00,,,0.00,meteohub,2013-03-09 18:57:00,
2013-03-09 14:02:00,36.9,32.2,30.28,East,90,6.0,17.0,83,0.00,,,0.00,meteohub,2013-03-09 19:02:00,
2013-03-09 14:07:00,37.0,32.4,30.28,ESE,119,11.0,17.0,83,0.00,,,0.00,meteohub,2013-03-09 19:07:00,
2013-03-09 14:12:00,37.0,32.7,30.28,East,91,7.0,17.0,84,0.00,,,0.00,meteohub,2013-03-09 19:12:00,
2013-03-09 14:17:00,36.9,32.5,30.28,East,88,7.0,14.0,84,0.00,,,0.00,meteohub,2013-03-09 19:17:00,
2013-03-09 14:22:00,36.9,32.5,30.29,ESE,106,8.0,18.0,84,0.00,,,0.00,meteohub,2013-03-09 19:22:00,
2013-03-09 14:27:00,36.9,32.5,30.28,ESE,111,8.0,18.0,84,0.00,,,0.00,meteohub,2013-03-09 19:27:00,
2013-03-09 14:32:00,36.7,32.4,30.28,East,96,13.0,18.0,84,0.00,,,0.00,meteohub,2013-03-09 19:32:00,
2013-03-09 14:37:00,36.7,32.4,30.28,East,82,13.0,16.0,84,0.00,,,0.00,meteohub,2013-03-09 19:37:00,
2013-03-09 14:42:00,36.7,32.4,30.28,East,88,7.0,18.0,84,0.00,,,0.00,meteohub,2013-03-09 19:42:00,
2013-03-09 14:47:00,36.7,32.4,30.28,ENE,71,5.0,18.0,84,0.00,,,0.00,meteohub,2013-03-09 19:47:00,
2013-03-09 14:52:00,36.7,32.4,30.29,NE,53,10.0,18.0,84,0.00,,,0.00,meteohub,2013-03-09 19:52:00,
2013-03-09 14:57:00,36.7,32.4,30.29,ENE,57,11.0,17.0,84,0.00,,,0.00,meteohub,2013-03-09 19:57:00,
2013-03-09 15:02:00,36.9,32.5,30.29,East,100,6.0,18.0,84,0.00,,,0.00,meteohub,2013-03-09 20:02:00,
2013-03-09 15:08:00,36.7,32.4,30.29,SE,132,8.0,18.0,84,0.00,,,0.00,meteohub,2013-03-09 20:08:00,
2013-03-09 15:13:00,36.7,32.5,30.29,East,83,6.0,18.0,85,0.00,,,0.00,meteohub,2013-03-09 20:13:00,
2013-03-09 15:18:00,36.9,32.5,30.29,SE,132,12.0,18.0,84,0.00,,,0.00,meteohub,2013-03-09 20:18:00,
2013-03-09 15:23:00,36.7,32.4,30.29,East,94,7.0,18.0,84,0.00,,,0.00,meteohub,2013-03-09 20:23:00,
2013-03-09 15:28:00,36.7,32.4,30.29,ENE,71,19.0,19.0,84,0.00,,,0.00,meteohub,2013-03-09 20:28:00,
2013-03-09 15:33:00,36.3,32.2,30.29,East,101,11.0,21.0,85,0.00,,,0.00,meteohub,2013-03-09 20:33:00,
2013-03-09 15:38:00,36.3,32.2,30.29,ENE,78,5.0,21.0,85,0.00,,,0.00,meteohub,2013-03-09 20:38:00,
2013-03-09 15:43:00,36.3,32.2,30.29,East,87,13.0,21.0,85,0.00,,,0.00,meteohub,2013-03-09 20:43:00,
2013-03-09 15:48:00,36.3,32.2,30.30,ENE,70,10.0,17.0,85,0.00,,,0.00,meteohub,2013-03-09 20:48:00,
2013-03-09 15:53:00,36.1,31.8,30.30,East,89,11.0,17.0,84,0.00,,,0.00,meteohub,2013-03-09 20:53:00,
2013-03-09 15:58:00,36.3,32.2,30.30,ENE,63,8.0,17.0,85,0.00,,,0.00,meteohub,2013-03-09 20:58:00,
2013-03-09 16:04:00,36.7,32.5,30.29,ENE,69,11.0,17.0,85,0.00,,,0.00,meteohub,2013-03-09 21:04:00,
2013-03-09 16:09:00,37.0,32.9,30.29,ENE,77,7.0,17.0,85,0.00,,,0.00,meteohub,2013-03-09 21:09:00,
2013-03-09 16:14:00,37.0,32.7,30.30,East,82,9.0,16.0,84,0.00,,,0.00,meteohub,2013-03-09 21:14:00,
2013-03-09 16:19:00,37.2,32.5,30.30,ENE,61,8.0,15.0,83,0.00,,,0.00,meteohub,2013-03-09 21:19:00,
2013-03-09 16:24:00,37.4,33.1,30.30,East,98,6.0,16.0,84,0.00,,,0.00,meteohub,2013-03-09 21:24:00,
2013-03-09 16:29:00,37.4,33.1,30.30,East,83,8.0,16.0,84,0.00,,,0.00,meteohub,2013-03-09 21:29:00,
2013-03-09 16:34:00,36.9,32.2,30.30,East,101,15.0,16.0,83,0.00,,,0.00,meteohub,2013-03-09 21:34:00,
2013-03-09 16:39:00,36.3,31.6,30.30,SE,138,5.0,14.0,83,0.00,,,0.00,meteohub,2013-03-09 21:39:00,
2013-03-09 16:44:00,36.1,31.8,30.31,East,93,7.0,18.0,84,0.00,,,0.00,meteohub,2013-03-09 21:44:00,
2013-03-09 16:49:00,36.3,32.0,30.31,East,89,7.0,18.0,84,0.00,,,0.00,meteohub,2013-03-09 21:49:00,
2013-03-09 16:54:00,36.3,32.2,30.30,NNE,16,5.0,18.0,85,0.00,,,0.00,meteohub,2013-03-09 21:54:00,
2013-03-09 16:59:00,36.1,31.8,30.30,East,92,7.0,16.0,84,0.00,,,0.00,meteohub,2013-03-09 21:59:00,
2013-03-09 17:04:00,36.0,31.8,30.30,East,101,6.0,15.0,85,0.00,,,0.00,meteohub,2013-03-09 22:04:00,
2013-03-09 17:10:00,36.0,31.8,30.31,East,86,7.0,15.0,85,0.00,,,0.00,meteohub,2013-03-09 22:10:00,
2013-03-09 17:15:00,36.0,31.8,30.31,East,100,8.0,14.0,85,0.00,,,0.00,meteohub,2013-03-09 22:15:00,
2013-03-09 17:20:00,35.8,31.6,30.31,East,90,6.0,14.0,85,0.00,,,0.00,meteohub,2013-03-09 22:20:00,
2013-03-09 17:25:00,35.8,32.0,30.31,East,101,5.0,13.0,86,0.00,,,0.00,meteohub,2013-03-09 22:25:00,
2013-03-09 17:30:00,35.4,31.6,30.32,East,90,7.0,10.0,86,0.00,,,0.00,meteohub,2013-03-09 22:30:00,
2013-03-09 17:35:00,35.4,31.6,30.32,East,79,6.0,11.0,86,0.00,,,0.00,meteohub,2013-03-09 22:35:00,
2013-03-09 17:40:00,35.2,31.8,30.32,ESE,121,3.0,11.0,87,0.00,,,0.00,meteohub,2013-03-09 22:40:00,
2013-03-09 17:45:00,35.2,31.5,30.32,NE,34,5.0,11.0,86,0.00,,,0.00,meteohub,2013-03-09 22:45:00,
2013-03-09 17:50:00,35.2,31.5,30.32,East,81,7.0,10.0,86,0.00,,,0.00,meteohub,2013-03-09 22:50:00,
2013-03-09 17:55:00,35.1,31.3,30.32,ESE,107,4.0,10.0,86,0.00,,,0.00,meteohub,2013-03-09 22:55:00,
2013-03-09 18:00:00,35.1,31.6,30.33,ESE,121,7.0,10.0,87,0.00,,,0.00,meteohub,2013-03-09 23:00:00,
2013-03-09 18:05:00,35.1,31.6,30.33,ENE,74,5.0,9.0,87,0.00,,,0.00,meteohub,2013-03-09 23:05:00,
2013-03-09 18:11:00,35.1,31.6,30.33,ESE,105,5.0,11.0,87,0.00,,,0.00,meteohub,2013-03-09 23:11:00,
2013-03-09 18:16:00,35.1,31.6,30.34,ENE,57,4.0,11.0,87,0.00,,,0.00,meteohub,2013-03-09 23:16:00,
2013-03-09 18:21:00,35.1,31.6,30.34,ESE,105,7.0,11.0,87,0.00,,,0.00,meteohub,2013-03-09 23:21:00,
2013-03-09 18:26:00,35.1,31.6,30.34,ESE,111,7.0,9.0,87,0.00,,,0.00,meteohub,2013-03-09 23:26:00,
2013-03-09 18:31:00,35.1,31.8,30.34,East,86,8.0,11.0,88,0.00,,,0.00,meteohub,2013-03-09 23:31:00,
2013-03-09 18:36:00,35.1,31.8,30.34,ESE,122,4.0,11.0,88,0.00,,,0.00,meteohub,2013-03-09 23:36:00,
2013-03-09 18:41:00,35.2,32.0,30.35,SE,126,3.0,11.0,88,0.00,,,0.00,meteohub,2013-03-09 23:41:00,
2013-03-09 18:46:00,35.1,31.8,30.35,ESE,109,5.0,11.0,88,0.00,,,0.00,meteohub,2013-03-09 23:46:00,
2013-03-09 18:51:00,35.1,31.8,30.35,SE,132,3.0,10.0,88,0.00,,,0.00,meteohub,2013-03-09 23:51:00,
2013-03-09 18:56:00,35.1,31.8,30.35,ESE,123,4.0,10.0,88,0.00,,,0.00,meteohub,2013-03-09 23:56:00,
2013-03-09 19:01:00,35.2,32.0,30.35,East,89,6.0,13.0,88,0.00,,,0.00,meteohub,2013-03-10 00:01:00,
2013-03-09 19:06:00,35.1,31.8,30.35,East,85,5.0,13.0,88,0.00,,,0.00,meteohub,2013-03-10 00:06:00,
2013-03-09 19:11:00,35.2,32.0,30.34,ESE,115,3.0,13.0,88,0.00,,,0.00,meteohub,2013-03-10 00:11:00,
2013-03-09 19:16:00,35.1,31.8,30.35,East,91,3.0,10.0,88,0.00,,,0.00,meteohub,2013-03-10 00:16:00,
2013-03-09 19:21:00,35.1,31.8,30.35,East,88,5.0,10.0,88,0.00,,,0.00,meteohub,2013-03-10 00:21:00,
2013-03-09 19:26:00,35.1,32.2,30.35,East,94,3.0,9.0,89,0.00,,,0.00,meteohub,2013-03-10 00:26:00,
2013-03-09 19:32:00,35.1,32.2,30.35,ESE,110,3.0,9.0,89,0.00,,,0.00,meteohub,2013-03-10 00:32:00,
2013-03-09 19:37:00,34.9,32.0,30.35,East,82,7.0,7.0,89,0.00,,,0.00,meteohub,2013-03-10 00:37:00,
2013-03-09 19:42:00,35.1,32.2,30.35,ESE,120,5.0,9.0,89,0.00,,,0.00,meteohub,2013-03-10 00:42:00,
2013-03-09 19:47:00,35.1,32.2,30.35,ENE,72,3.0,9.0,89,0.00,,,0.00,meteohub,2013-03-10 00:47:00,
2013-03-09 19:52:00,35.1,32.4,30.35,East,98,5.0,9.0,90,0.00,,,0.00,meteohub,2013-03-10 00:52:00,
2013-03-09 19:57:00,35.1,32.2,30.35,ENE,69,4.0,11.0,89,0.00,,,0.00,meteohub,2013-03-10 00:57:00,
2013-03-09 20:02:00,35.1,32.2,30.35,ESE,123,2.0,11.0,89,0.00,,,0.00,meteohub,2013-03-10 01:02:00,
2013-03-09 20:07:00,35.1,32.4,30.35,ENE,63,2.0,11.0,90,0.00,,,0.00,meteohub,2013-03-10 01:07:00,
2013-03-09 20:12:00,35.1,32.2,30.35,East,97,2.0,8.0,89,0.00,,,0.00,meteohub,2013-03-10 01:12:00,
2013-03-09 20:17:00,35.1,32.4,30.35,ESE,107,4.0,8.0,90,0.00,,,0.00,meteohub,2013-03-10 01:17:00,
2013-03-09 20:22:00,35.1,32.4,30.35,East,92,5.0,8.0,90,0.00,,,0.00,meteohub,2013-03-10 01:22:00,
2013-03-09 20:27:00,35.1,32.4,30.35,East,81,6.0,8.0,90,0.00,,,0.00,meteohub,2013-03-10 01:27:00,
2013-03-09 20:32:00,35.1,32.4,30.35,East,93,3.0,8.0,90,0.00,,,0.00,meteohub,2013-03-10 01:32:00,
2013-03-09 20:37:00,35.2,32.5,30.35,East,86,5.0,10.0,90,0.00,,,0.00,meteohub,2013-03-10 01:37:00,
2013-03-09 20:42:00,35.1,32.4,30.35,East,100,6.0,10.0,90,0.00,,,0.00,meteohub,2013-03-10 01:42:00,
2013-03-09 20:47:00,35.2,32.5,30.35,East,96,1.0,8.0,90,0.00,,,0.00,meteohub,2013-03-10 01:47:00,
2013-03-09 20:52:00,35.1,32.4,30.35,East,100,2.0,9.0,90,0.00,,,0.00,meteohub,2013-03-10 01:52:00,
2013-03-09 20:57:00,35.2,32.5,30.36,East,90,5.0,9.0,90,0.00,,,0.00,meteohub,2013-03-10 01:57:00,
2013-03-09 21:02:00,35.2,32.5,30.35,East,81,5.0,9.0,90,0.00,,,0.00,meteohub,2013-03-10 02:02:00,
2013-03-09 21:07:00,35.2,32.5,30.35,ESE,115,2.0,9.0,90,0.00,,,0.00,meteohub,2013-03-10 02:07:00,
2013-03-09 21:12:00,35.2,32.5,30.35,ENE,78,3.0,9.0,90,0.00,,,0.00,meteohub,2013-03-10 02:12:00,
2013-03-09 21:17:00,35.2,32.5,30.35,East,84,3.0,7.0,90,0.00,,,0.00,meteohub,2013-03-10 02:17:00,
2013-03-09 21:22:00,35.2,32.5,30.35,ENE,78,2.0,7.0,90,0.00,,,0.00,meteohub,2013-03-10 02:22:00,
2013-03-09 21:27:00,35.2,32.5,30.35,East,101,2.0,7.0,90,0.00,,,0.00,meteohub,2013-03-10 02:27:00,
2013-03-09 21:32:00,35.2,32.5,30.35,ESE,111,2.0,7.0,90,0.00,,,0.00,meteohub,2013-03-10 02:32:00,
2013-03-09 21:37:00,35.2,32.5,30.35,East,82,2.0,7.0,90,0.00,,,0.00,meteohub,2013-03-10 02:37:00,
2013-03-09 21:42:00,35.2,32.5,30.36,East,99,2.0,7.0,90,0.00,,,0.00,meteohub,2013-03-10 02:42:00,
2013-03-09 21:47:00,35.2,32.5,30.36,East,79,2.0,9.0,90,0.00,,,0.00,meteohub,2013-03-10 02:47:00,
2013-03-09 21:52:00,35.2,32.5,30.36,East,84,2.0,9.0,90,0.00,,,0.00,meteohub,2013-03-10 02:52:00,
2013-03-09 21:57:00,35.2,32.5,30.36,East,93,1.0,9.0,90,0.00,,,0.00,meteohub,2013-03-10 02:57:00,
2013-03-09 22:02:00,35.2,32.5,30.36,ESE,117,2.0,6.0,90,0.00,,,0.00,meteohub,2013-03-10 03:02:00,
2013-03-09 22:07:00,35.2,32.5,30.36,SE,138,2.0,6.0,90,0.00,,,0.00,meteohub,2013-03-10 03:07:00,
2013-03-09 22:12:00,35.2,32.5,30.37,East,85,5.0,6.0,90,0.00,,,0.00,meteohub,2013-03-10 03:12:00,
2013-03-09 22:17:00,35.2,32.5,30.37,ENE,67,2.0,6.0,90,0.00,,,0.00,meteohub,2013-03-10 03:17:00,
2013-03-09 22:22:00,35.2,32.5,30.37,East,92,2.0,6.0,90,0.00,,,0.00,meteohub,2013-03-10 03:22:00,
2013-03-09 22:27:00,35.2,32.5,30.37,East,92,2.0,6.0,90,0.00,,,0.00,meteohub,2013-03-10 03:27:00,
2013-03-09 22:32:00,35.2,32.5,30.37,NE,53,1.0,6.0,90,0.00,,,0.00,meteohub,2013-03-10 03:32:00,
2013-03-09 22:37:00,35.2,32.5,30.37,East,94,6.0,6.0,90,0.00,,,0.00,meteohub,2013-03-10 03:37:00,
2013-03-09 22:42:00,35.1,32.4,30.37,ENE,61,0.0,7.0,90,0.00,,,0.00,meteohub,2013-03-10 03:42:00,
2013-03-09 22:47:00,35.1,32.4,30.37,East,88,0.0,7.0,90,0.00,,,0.00,meteohub,2013-03-10 03:47:00,
2013-03-09 22:52:00,35.2,32.5,30.37,ESE,105,3.0,7.0,90,0.00,,,0.00,meteohub,2013-03-10 03:52:00,
2013-03-09 23:55:00,34.9,32.5,30.36,ENE,72,2.0,3.0,91,0.00,,,0.00,meteohub,2013-03-10 04:55:00,